Time,TemperatureF,DewpointF,PressureIn,WindDirection,WindDirectionDegrees,WindSpeedMPH,WindSpeedGustMPH,Humidity,HourlyPrecipIn,Conditions,Clouds,dailyrainin,SoftwareType,DateUTC
2013-02-19 00:07:00,35.2,34.7,29.91,NNW,337,0.0,-999.0,98,-99.99,,,0.00,Acu-Link.com,2013-02-19 05:07:00,
2013-02-19 00:23:00,34.7,34.2,29.92,NW,315,0.0,-999.0,98,-99.99,,,0.00,Acu-Link.com,2013-02-19 05:23:00,
2013-02-19 00:38:00,32.9,32.4,29.92,NW,315,1.1,-999.0,98,-99.99,,,0.00,Acu-Link.com,2013-02-19 05:38:00,
2013-02-19 00:53:00,31.1,30.6,29.92,SSW,202,0.0,-999.0,98,-99.99,,,0.00,Acu-Link.com,2013-02-19 05:53:00,
2013-02-19 01:09:00,30.4,29.9,29.91,ENE,67,1.7,-999.0,98,-99.99,,,0.00,Acu-Link.com,2013-02-19 06:09:00,
2013-02-19 01:24:00,30.6,30.1,29.90,NNW,337,0.0,-999.0,98,-99.99,,,0.00,Acu-Link.com,2013-02-19 06:24:00,
2013-02-19 01:39:00,32.5,32.0,29.90,North,0,1.1,-999.0,98,-99.99,,,0.00,Acu-Link.com,2013-02-19 06:39:00,
2013-02-19 01:54:00,34.0,33.5,29.89,WSW,247,2.2,-999.0,98,-99.99,,,0.00,Acu-Link.com,2013-02-19 06:54:00,
2013-02-19 02:09:00,35.6,35.1,29.87,East,90,1.7,-999.0,98,-99.99,,,0.00,Acu-Link.com,2013-02-19 07:09:00,
2013-02-19 02:25:00,35.6,35.1,29.86,North,0,0.0,-999.0,98,-99.99,,,0.00,Acu-Link.com,2013-02-19 07:25:00,
2013-02-19 02:40:00,34.5,34.0,29.84,South,180,0.0,-999.0,98,-99.99,,,0.00,Acu-Link.com,2013-02-19 07:40:00,
2013-02-19 02:55:00,33.3,32.8,29.84,NNW,337,0.0,-999.0,98,-99.99,,,0.00,Acu-Link.com,2013-02-19 07:55:00,
2013-02-19 03:11:00,32.5,32.0,29.83,NW,315,0.0,-999.0,98,-99.99,,,0.00,Acu-Link.com,2013-02-19 08:11:00,
2013-02-19 03:26:00,32.0,31.5,29.85,WNW,292,1.7,-999.0,98,-99.99,,,0.00,Acu-Link.com,2013-02-19 08:26:00,
2013-02-19 03:41:00,31.8,31.3,29.84,NNE,22,0.0,-999.0,98,-99.99,,,0.00,Acu-Link.com,2013-02-19 08:41:00,
2013-02-19 03:57:00,32.2,31.7,29.83,NNE,22,1.7,-999.0,98,-99.99,,,0.00,Acu-Link.com,2013-02-19 08:57:00,
2013-02-19 04:18:00,32.5,32.0,29.82,SW,225,0.0,-999.0,98,-99.99,,,0.00,Acu-Link.com,2013-02-19 09:18:00,
2013-02-19 04:33:00,34.3,33.8,29.82,NNW,337,0.0,-999.0,98,-99.99,,,0.00,Acu-Link.com,2013-02-19 09:33:00,
2013-02-19 04:48:00,35.6,35.1,29.82,South,180,0.0,-999.0,98,-99.99,,,0.00,Acu-Link.com,2013-02-19 09:48:00,
2013-02-19 05:03:00,34.7,34.2,29.84,North,0,0.0,-999.0,98,-99.99,,,0.00,Acu-Link.com,2013-02-19 10:03:00,
2013-02-19 05:18:00,34.2,33.7,29.82,WNW,292,0.0,-999.0,98,-99.99,,,0.00,Acu-Link.com,2013-02-19 10:18:00,
2013-02-19 05:33:00,33.8,33.3,29.80,ENE,67,0.0,-999.0,98,-99.99,,,0.00,Acu-Link.com,2013-02-19 10:33:00,
2013-02-19 05:49:00,33.4,32.9,29.80,NNE,22,0.0,-999.0,98,-99.99,,,0.00,Acu-Link.com,2013-02-19 10:49:00,
2013-02-19 06:04:00,34.0,33.5,29.81,ESE,112,0.0,-999.0,98,-99.99,,,0.00,Acu-Link.com,2013-02-19 11:04:00,
2013-02-19 06:19:00,34.3,33.8,29.80,NE,45,0.0,-999.0,98,-99.99,,,0.00,Acu-Link.com,2013-02-19 11:19:00,
2013-02-19 06:34:00,34.5,34.0,29.80,NE,45,0.0,-999.0,98,-99.99,,,0.00,Acu-Link.com,2013-02-19 11:34:00,
2013-02-19 06:49:00,34.7,34.2,29.80,NW,315,0.0,-999.0,98,-99.99,,,0.00,Acu-Link.com,2013-02-19 11:49:00,
2013-02-19 07:05:00,34.5,34.0,29.80,NNE,22,0.0,-999.0,98,-99.99,,,0.00,Acu-Link.com,2013-02-19 12:05:00,
2013-02-19 07:20:00,34.7,34.2,29.81,NE,45,0.0,-999.0,98,-99.99,,,0.00,Acu-Link.com,2013-02-19 12:20:00,
2013-02-19 07:35:00,34.3,33.8,29.81,ESE,112,2.2,-999.0,98,-99.99,,,0.00,Acu-Link.com,2013-02-19 12:35:00,
2013-02-19 07:50:00,34.0,33.5,29.80,SW,225,1.1,-999.0,98,-99.99,,,0.00,Acu-Link.com,2013-02-19 12:50:00,
2013-02-19 08:05:00,33.8,33.3,29.79,ESE,112,0.0,-999.0,98,-99.99,,,0.00,Acu-Link.com,2013-02-19 13:05:00,
2013-02-19 08:20:00,33.6,33.1,29.78,NE,45,0.0,-999.0,98,-99.99,,,0.00,Acu-Link.com,2013-02-19 13:20:00,
2013-02-19 08:36:00,33.6,33.1,29.78,NNE,22,0.0,-999.0,98,-99.99,,,0.00,Acu-Link.com,2013-02-19 13:36:00,
2013-02-19 08:51:00,33.6,33.1,29.78,NE,45,1.7,-999.0,98,-99.99,,,0.00,Acu-Link.com,2013-02-19 13:51:00,
2013-02-19 09:06:00,33.6,33.1,29.76,NNE,22,0.0,-999.0,98,-99.99,,,0.00,Acu-Link.com,2013-02-19 14:06:00,
2013-02-19 09:21:00,34.2,33.7,29.76,NE,45,0.0,-999.0,98,-99.99,,,0.00,Acu-Link.com,2013-02-19 14:21:00,
2013-02-19 09:37:00,34.3,33.8,29.76,North,0,1.1,-999.0,98,-99.99,,,0.00,Acu-Link.com,2013-02-19 14:37:00,
2013-02-19 09:52:00,34.3,33.8,29.75,SE,135,0.0,-999.0,98,-99.99,,,0.00,Acu-Link.com,2013-02-19 14:52:00,
2013-02-19 10:07:00,34.7,34.2,29.74,North,0,1.7,-999.0,98,-99.99,,,0.00,Acu-Link.com,2013-02-19 15:07:00,
2013-02-19 10:22:00,34.9,34.4,29.74,NNE,22,0.0,-999.0,98,-99.99,,,0.00,Acu-Link.com,2013-02-19 15:22:00,
2013-02-19 10:38:00,34.9,34.4,29.74,West,270,0.0,-999.0,98,-99.99,,,0.00,Acu-Link.com,2013-02-19 15:38:00,
2013-02-19 10:53:00,35.1,34.6,29.73,WNW,292,0.0,-999.0,98,-99.99,,,0.01,Acu-Link.com,2013-02-19 15:53:00,
2013-02-19 11:09:00,35.2,34.7,29.73,NNW,337,0.0,-999.0,98,-99.99,,,0.01,Acu-Link.com,2013-02-19 16:09:00,
2013-02-19 11:24:00,35.8,35.3,29.72,ESE,112,0.0,-999.0,98,-99.99,,,0.02,Acu-Link.com,2013-02-19 16:24:00,
2013-02-19 11:39:00,36.7,36.2,29.72,East,90,0.0,-999.0,98,-99.99,,,0.02,Acu-Link.com,2013-02-19 16:39:00,
2013-02-19 11:54:00,37.6,37.1,29.71,WNW,292,2.7,-999.0,98,-99.99,,,0.03,Acu-Link.com,2013-02-19 16:54:00,
2013-02-19 12:09:00,37.2,36.7,29.69,NNW,337,1.7,-999.0,98,-99.99,,,0.04,Acu-Link.com,2013-02-19 17:09:00,
2013-02-19 12:25:00,37.2,36.7,29.68,SW,225,0.0,-999.0,98,-99.99,,,0.04,Acu-Link.com,2013-02-19 17:25:00,
2013-02-19 12:40:00,38.8,38.3,29.67,ESE,112,1.1,-999.0,98,-99.99,,,0.04,Acu-Link.com,2013-02-19 17:40:00,
2013-02-19 12:55:00,40.6,40.1,29.65,SSW,202,2.2,-999.0,98,-99.99,,,0.04,Acu-Link.com,2013-02-19 17:55:00,
2013-02-19 13:10:00,42.8,42.3,29.65,East,90,4.7,-999.0,98,-99.99,,,0.04,Acu-Link.com,2013-02-19 18:10:00,
2013-02-19 13:25:00,42.8,42.3,29.64,SSW,202,3.7,-999.0,98,-99.99,,,0.04,Acu-Link.com,2013-02-19 18:25:00,
2013-02-19 13:40:00,43.2,42.7,29.63,South,180,2.2,-999.0,98,-99.99,,,0.04,Acu-Link.com,2013-02-19 18:40:00,
2013-02-19 13:55:00,43.7,43.2,29.62,SSE,157,3.7,-999.0,98,-99.99,,,0.04,Acu-Link.com,2013-02-19 18:55:00,
2013-02-19 14:11:00,43.9,43.4,29.62,SE,135,3.7,-999.0,98,-99.99,,,0.04,Acu-Link.com,2013-02-19 19:11:00,
2013-02-19 14:26:00,44.2,43.7,29.61,West,270,2.2,-999.0,98,-99.99,,,0.04,Acu-Link.com,2013-02-19 19:26:00,
2013-02-19 14:41:00,45.7,45.2,29.60,SE,135,3.7,-999.0,98,-99.99,,,0.04,Acu-Link.com,2013-02-19 19:41:00,
2013-02-19 14:56:00,46.4,45.9,29.60,SSE,157,4.7,-999.0,98,-99.99,,,0.04,Acu-Link.com,2013-02-19 19:56:00,
2013-02-19 15:11:00,47.1,46.6,29.59,NNE,22,2.2,-999.0,98,-99.99,,,0.04,Acu-Link.com,2013-02-19 20:11:00,
2013-02-19 15:26:00,47.3,46.8,29.59,ESE,112,4.2,-999.0,98,-99.99,,,0.04,Acu-Link.com,2013-02-19 20:26:00,
2013-02-19 15:42:00,46.9,46.4,29.59,South,180,2.7,-999.0,98,-99.99,,,0.04,Acu-Link.com,2013-02-19 20:42:00,
2013-02-19 15:57:00,47.7,47.2,29.58,ESE,112,0.0,-999.0,98,-99.99,,,0.04,Acu-Link.com,2013-02-19 20:57:00,
2013-02-19 16:12:00,48.9,48.4,29.58,West,270,6.8,-999.0,98,-99.99,,,0.04,Acu-Link.com,2013-02-19 21:12:00,
2013-02-19 16:27:00,52.3,51.8,29.59,West,270,9.9,-999.0,98,-99.99,,,0.04,Acu-Link.com,2013-02-19 21:27:00,
2013-02-19 16:43:00,51.4,50.9,29.60,West,270,7.3,-999.0,98,-99.99,,,0.05,Acu-Link.com,2013-02-19 21:43:00,
2013-02-19 16:58:00,50.2,49.7,29.61,SSW,202,11.9,-999.0,98,-99.99,,,0.05,Acu-Link.com,2013-02-19 21:58:00,
2013-02-19 17:13:00,50.0,49.5,29.61,SSW,202,4.7,-999.0,98,-99.99,,,0.05,Acu-Link.com,2013-02-19 22:13:00,
2013-02-19 17:28:00,49.5,49.0,29.62,SW,225,9.9,-999.0,98,-99.99,,,0.05,Acu-Link.com,2013-02-19 22:28:00,
2013-02-19 17:43:00,48.6,48.1,29.63,South,180,6.3,-999.0,98,-99.99,,,0.05,Acu-Link.com,2013-02-19 22:43:00,
2013-02-19 17:58:00,48.0,47.5,29.63,WSW,247,7.8,-999.0,98,-99.99,,,0.05,Acu-Link.com,2013-02-19 22:58:00,
2013-02-19 18:14:00,47.8,47.3,29.64,SW,225,4.7,-999.0,98,-99.99,,,0.05,Acu-Link.com,2013-02-19 23:14:00,
2013-02-19 18:29:00,47.5,47.0,29.65,South,180,5.3,-999.0,98,-99.99,,,0.05,Acu-Link.com,2013-02-19 23:29:00,
2013-02-19 18:44:00,46.8,46.3,29.65,WSW,247,5.3,-999.0,98,-99.99,,,0.05,Acu-Link.com,2013-02-19 23:44:00,
2013-02-19 18:59:00,46.6,46.1,29.66,WSW,247,11.4,-999.0,98,-99.99,,,0.05,Acu-Link.com,2013-02-19 23:59:00,
2013-02-19 19:14:00,46.2,45.7,29.67,WSW,247,3.2,-999.0,98,-99.99,,,0.05,Acu-Link.com,2013-02-20 00:14:00,
2013-02-19 19:29:00,45.7,45.2,29.67,WSW,247,6.3,-999.0,98,-99.99,,,0.05,Acu-Link.com,2013-02-20 00:29:00,
2013-02-19 19:45:00,45.3,44.8,29.66,South,180,6.3,-999.0,98,-99.99,,,0.05,Acu-Link.com,2013-02-20 00:45:00,
2013-02-19 20:00:00,45.1,44.6,29.67,West,270,4.2,-999.0,98,-99.99,,,0.05,Acu-Link.com,2013-02-20 01:00:00,
2013-02-19 20:16:00,44.4,43.9,29.68,South,180,4.7,-999.0,98,-99.99,,,0.05,Acu-Link.com,2013-02-20 01:16:00,
2013-02-19 20:31:00,43.9,43.4,29.68,SSW,202,3.2,-999.0,98,-99.99,,,0.05,Acu-Link.com,2013-02-20 01:31:00,
2013-02-19 20:46:00,43.9,43.4,29.69,SW,225,3.7,-999.0,98,-99.99,,,0.05,Acu-Link.com,2013-02-20 01:46:00,
2013-02-19 21:02:00,42.8,42.3,29.69,SSW,202,4.2,-999.0,98,-99.99,,,0.05,Acu-Link.com,2013-02-20 02:02:00,
2013-02-19 21:17:00,42.6,42.1,29.70,SSW,202,7.3,-999.0,98,-99.99,,,0.05,Acu-Link.com,2013-02-20 02:17:00,
2013-02-19 21:32:00,42.8,42.3,29.71,WSW,247,7.8,-999.0,98,-99.99,,,0.05,Acu-Link.com,2013-02-20 02:32:00,
2013-02-19 21:47:00,41.9,41.4,29.72,WSW,247,9.9,-999.0,98,-99.99,,,0.05,Acu-Link.com,2013-02-20 02:47:00,
2013-02-19 22:02:00,41.4,40.9,29.72,South,180,8.9,-999.0,98,-99.99,,,0.05,Acu-Link.com,2013-02-20 03:02:00,
2013-02-19 22:18:00,41.2,40.7,29.72,SW,225,6.3,-999.0,98,-99.99,,,0.05,Acu-Link.com,2013-02-20 03:18:00,
2013-02-19 22:33:00,40.5,40.0,29.73,SSW,202,4.2,-999.0,98,-99.99,,,0.05,Acu-Link.com,2013-02-20 03:33:00,
2013-02-19 22:48:00,40.3,39.8,29.73,SSW,202,4.2,-999.0,98,-99.99,,,0.05,Acu-Link.com,2013-02-20 03:48:00,
2013-02-19 23:04:00,39.9,39.4,29.73,West,270,8.3,-999.0,98,-99.99,,,0.05,Acu-Link.com,2013-02-20 04:04:00,
2013-02-19 23:19:00,39.4,38.9,29.73,SW,225,4.7,-999.0,98,-99.99,,,0.05,Acu-Link.com,2013-02-20 04:19:00,
2013-02-19 23:35:00,39.2,38.7,29.73,SSW,202,4.2,-999.0,98,-99.99,,,0.05,Acu-Link.com,2013-02-20 04:35:00,
2013-02-19 23:50:00,38.1,37.6,29.74,West,270,6.3,-999.0,98,-99.99,,,0.05,Acu-Link.com,2013-02-20 04:50:00,